Time,TemperatureF,DewpointF,PressureIn,WindDirection,WindDirectionDegrees,WindSpeedMPH,WindSpeedGustMPH,Humidity,HourlyPrecipIn,Conditions,Clouds,dailyrainin,SoftwareType,DateUTC
2013-01-02 00:02:00,44.0,26.0,30.25,East,79,1.0,3.0,49,0.00,,,0.00,,2013-01-02 08:02:00,
2013-01-02 00:11:00,44.0,26.0,30.25,East,79,1.0,3.0,49,0.00,,,0.00,,2013-01-02 08:11:00,
2013-01-02 00:22:00,44.0,25.0,30.25,ENE,69,1.0,3.0,46,0.00,,,0.00,,2013-01-02 08:22:00,
2013-01-02 00:32:00,44.0,23.0,30.24,ENE,57,2.0,5.0,44,0.00,,,0.00,,2013-01-02 08:32:00,
2013-01-02 00:42:00,44.0,23.0,30.24,ENE,57,2.0,5.0,44,0.00,,,0.00,,2013-01-02 08:42:00,
2013-01-02 00:52:00,44.0,23.0,30.25,NNE,21,1.0,3.0,44,0.00,,,0.00,,2013-01-02 08:52:00,
2013-01-02 01:02:00,45.0,23.0,30.24,NE,44,1.0,4.0,42,0.00,,,0.00,,2013-01-02 09:02:00,
2013-01-02 01:12:00,45.0,23.0,30.24,NE,44,1.0,4.0,42,0.00,,,0.00,,2013-01-02 09:12:00,
2013-01-02 01:22:00,45.0,22.0,30.24,NE,40,1.0,4.0,40,0.00,,,0.00,,2013-01-02 09:22:00,
2013-01-02 01:32:00,45.0,23.0,30.24,ENE,70,1.0,2.0,42,0.00,,,0.00,,2013-01-02 09:32:00,
2013-01-02 01:42:00,45.0,23.0,30.24,ENE,70,1.0,2.0,42,0.00,,,0.00,,2013-01-02 09:42:00,
2013-01-02 01:52:00,45.0,23.0,30.23,East,79,2.0,3.0,42,0.00,,,0.00,,2013-01-02 09:52:00,
2013-01-02 02:02:00,45.0,24.0,30.23,East,84,2.0,5.0,43,0.00,,,0.00,,2013-01-02 10:02:00,
2013-01-02 02:12:00,45.0,24.0,30.23,East,84,2.0,5.0,43,0.00,,,0.00,,2013-01-02 10:12:00,
2013-01-02 02:22:00,45.0,23.0,30.23,ENE,78,2.0,3.0,42,0.00,,,0.00,,2013-01-02 10:22:00,
2013-01-02 02:32:00,45.0,23.0,30.23,ENE,69,2.0,3.0,41,0.00,,,0.00,,2013-01-02 10:32:00,
2013-01-02 02:42:00,45.0,23.0,30.23,ENE,69,2.0,3.0,41,0.00,,,0.00,,2013-01-02 10:42:00,
2013-01-02 02:52:00,46.0,23.0,30.23,East,87,2.0,5.0,40,0.00,,,0.00,,2013-01-02 10:52:00,
2013-01-02 03:02:00,45.0,23.0,30.23,ENE,76,2.0,5.0,41,0.00,,,0.00,,2013-01-02 11:02:00,
2013-01-02 03:11:00,45.0,23.0,30.23,ENE,76,2.0,5.0,41,0.00,,,0.00,,2013-01-02 11:11:00,
2013-01-02 03:22:00,46.0,24.0,30.23,ENE,67,3.0,7.0,41,0.00,,,0.00,,2013-01-02 11:22:00,
2013-01-02 03:32:00,45.0,23.0,30.22,East,81,3.0,5.0,42,0.00,,,0.00,,2013-01-02 11:32:00,
2013-01-02 03:42:00,45.0,23.0,30.22,East,81,3.0,5.0,42,0.00,,,0.00,,2013-01-02 11:42:00,
2013-01-02 03:52:00,45.0,23.0,30.22,East,94,3.0,5.0,41,0.00,,,0.00,,2013-01-02 11:52:00,
2013-01-02 04:02:00,45.0,23.0,30.22,East,98,3.0,6.0,41,0.00,,,0.00,,2013-01-02 12:02:00,
2013-01-02 04:12:00,45.0,23.0,30.22,East,98,3.0,6.0,41,0.00,,,0.00,,2013-01-02 12:12:00,
2013-01-02 04:22:00,46.0,23.0,30.22,East,86,3.0,5.0,40,0.00,,,0.00,,2013-01-02 12:22:00,
2013-01-02 04:32:00,46.0,23.0,30.21,East,83,3.0,5.0,40,0.00,,,0.00,,2013-01-02 12:32:00,
2013-01-02 04:42:00,46.0,23.0,30.21,East,83,3.0,5.0,40,0.00,,,0.00,,2013-01-02 12:42:00,
2013-01-02 04:52:00,45.0,22.0,30.21,NNE,21,2.0,5.0,40,0.00,,,0.00,,2013-01-02 12:52:00,
2013-01-02 05:02:00,45.0,22.0,30.20,ENE,76,2.0,4.0,40,0.00,,,0.00,,2013-01-02 13:02:00,
2013-01-02 05:12:00,45.0,22.0,30.20,ENE,76,2.0,4.0,40,0.00,,,0.00,,2013-01-02 13:12:00,
2013-01-02 05:22:00,46.0,22.0,30.20,ENE,65,2.0,3.0,39,0.00,,,0.00,,2013-01-02 13:22:00,
2013-01-02 05:32:00,45.0,21.0,30.20,NE,38,1.0,3.0,38,0.00,,,0.00,,2013-01-02 13:32:00,
2013-01-02 05:42:00,45.0,21.0,30.20,NE,38,1.0,3.0,38,0.00,,,0.00,,2013-01-02 13:42:00,
2013-01-02 05:52:00,46.0,22.0,30.20,ENE,68,2.0,3.0,38,0.00,,,0.00,,2013-01-02 13:52:00,
2013-01-02 06:02:00,46.0,22.0,30.20,ENE,67,1.0,4.0,38,0.00,,,0.00,,2013-01-02 14:02:00,
2013-01-02 06:12:00,46.0,22.0,30.20,ENE,67,1.0,4.0,38,0.00,,,0.00,,2013-01-02 14:12:00,
2013-01-02 06:22:00,45.0,21.0,30.20,ENE,69,1.0,2.0,38,0.00,,,0.00,,2013-01-02 14:22:00,
2013-01-02 06:32:00,44.0,22.0,30.20,NE,49,1.0,2.0,42,0.00,,,0.00,,2013-01-02 14:32:00,
2013-01-02 06:42:00,44.0,22.0,30.20,NE,49,1.0,2.0,42,0.00,,,0.00,,2013-01-02 14:42:00,
2013-01-02 06:53:00,44.0,22.0,30.20,NE,49,1.0,2.0,42,0.00,,,0.00,,2013-01-02 14:53:00,
2013-01-02 07:02:00,44.0,21.0,30.20,ENE,61,1.0,2.0,40,0.00,,,0.00,,2013-01-02 15:02:00,
2013-01-02 07:12:00,44.0,21.0,30.20,ENE,61,1.0,2.0,40,0.00,,,0.00,,2013-01-02 15:12:00,
2013-01-02 07:22:00,45.0,22.0,30.20,ENE,74,2.0,3.0,39,0.00,,,0.00,,2013-01-02 15:22:00,
2013-01-02 07:33:00,45.0,22.0,30.20,East,95,2.0,3.0,40,0.00,,,0.00,,2013-01-02 15:33:00,
2013-01-02 08:12:00,45.0,22.0,30.20,East,95,2.0,3.0,40,0.00,,,0.00,,2013-01-02 16:12:00,
2013-01-02 08:53:00,45.0,25.0,30.22,SW,229,0.0,2.0,46,0.00,,,0.00,,2013-01-02 16:53:00,
2013-01-02 09:03:00,46.0,25.0,30.22,East,100,0.0,2.0,44,0.00,,,0.00,,2013-01-02 17:03:00,
2013-01-02 09:33:00,49.0,27.0,30.24,SSE,167,1.0,2.0,43,0.00,,,0.00,,2013-01-02 17:33:00,
2013-01-02 09:53:00,49.0,30.0,30.24,SW,226,1.0,3.0,47,0.00,,,0.00,,2013-01-02 17:53:00,
2013-01-02 10:02:00,49.0,32.0,30.25,SW,218,0.0,2.0,52,0.00,,,0.00,,2013-01-02 18:02:00,
2013-01-02 10:12:00,49.0,32.0,30.25,SW,218,0.0,2.0,52,0.00,,,0.00,,2013-01-02 18:12:00,
2013-01-02 10:22:00,50.0,32.0,30.25,WSW,242,1.0,4.0,50,0.00,,,0.00,,2013-01-02 18:22:00,
2013-01-02 10:33:00,51.0,33.0,30.25,SW,222,1.0,2.0,49,0.00,,,0.00,,2013-01-02 18:33:00,
2013-01-02 10:52:00,52.0,32.0,30.25,SSE,157,1.0,3.0,47,0.00,,,0.00,,2013-01-02 18:52:00,
2013-01-02 11:02:00,53.0,31.0,30.25,SW,222,1.0,3.0,42,0.00,,,0.00,,2013-01-02 19:02:00,
2013-01-02 11:12:00,53.0,31.0,30.25,SW,222,1.0,3.0,42,0.00,,,0.00,,2013-01-02 19:12:00,
2013-01-02 11:22:00,53.0,31.0,30.25,SE,143,1.0,3.0,42,0.00,,,0.00,,2013-01-02 19:22:00,
2013-01-02 11:32:00,54.0,29.0,30.24,ESE,107,2.0,4.0,38,0.00,,,0.00,,2013-01-02 19:32:00,
2013-01-02 11:42:00,54.0,29.0,30.24,ESE,107,2.0,4.0,38,0.00,,,0.00,,2013-01-02 19:42:00,
2013-01-02 11:52:00,55.0,30.0,30.23,ESE,116,1.0,4.0,38,0.00,,,0.00,,2013-01-02 19:52:00,
2013-01-02 12:02:00,55.0,31.0,30.22,ESE,119,2.0,4.0,39,0.00,,,0.00,,2013-01-02 20:02:00,
2013-01-02 12:12:00,55.0,31.0,30.22,ESE,119,2.0,4.0,39,0.00,,,0.00,,2013-01-02 20:12:00,
2013-01-02 12:22:00,56.0,31.0,30.22,SE,132,2.0,4.0,39,0.00,,,0.00,,2013-01-02 20:22:00,
2013-01-02 12:32:00,57.0,31.0,30.21,East,89,2.0,5.0,37,0.00,,,0.00,,2013-01-02 20:32:00,
2013-01-02 12:42:00,57.0,31.0,30.21,East,89,2.0,5.0,37,0.00,,,0.00,,2013-01-02 20:42:00,
2013-01-02 12:53:00,58.0,29.0,30.20,SE,134,3.0,4.0,33,0.00,,,0.00,,2013-01-02 20:53:00,
2013-01-02 13:02:00,59.0,28.0,30.20,West,261,1.0,3.0,30,0.00,,,0.00,,2013-01-02 21:02:00,
2013-01-02 13:12:00,59.0,28.0,30.20,West,261,1.0,3.0,30,0.00,,,0.00,,2013-01-02 21:12:00,
2013-01-02 13:22:00,59.0,28.0,30.19,South,188,2.0,4.0,30,0.00,,,0.00,,2013-01-02 21:22:00,
2013-01-02 13:32:00,59.0,36.0,30.19,WNW,284,2.0,4.0,42,0.00,,,0.00,,2013-01-02 21:32:00,
2013-01-02 13:42:00,59.0,36.0,30.19,WNW,284,2.0,4.0,42,0.00,,,0.00,,2013-01-02 21:42:00,
2013-01-02 13:52:00,57.0,38.0,30.19,WNW,292,2.0,3.0,48,0.00,,,0.00,,2013-01-02 21:52:00,
2013-01-02 14:02:00,57.0,39.0,30.19,WNW,284,2.0,4.0,50,0.00,,,0.00,,2013-01-02 22:02:00,
2013-01-02 14:12:00,57.0,39.0,30.19,WNW,284,2.0,4.0,50,0.00,,,0.00,,2013-01-02 22:12:00,
2013-01-02 14:22:00,56.0,38.0,30.18,SW,234,2.0,5.0,50,0.00,,,0.00,,2013-01-02 22:22:00,
2013-01-02 14:32:00,57.0,38.0,30.18,WSW,237,2.0,3.0,48,0.00,,,0.00,,2013-01-02 22:32:00,
2013-01-02 14:42:00,57.0,38.0,30.18,WSW,237,2.0,3.0,48,0.00,,,0.00,,2013-01-02 22:42:00,
2013-01-02 14:52:00,58.0,39.0,30.17,West,275,1.0,3.0,49,0.00,,,0.00,,2013-01-02 22:52:00,
2013-01-02 15:02:00,58.0,38.0,30.17,East,94,1.0,3.0,48,0.00,,,0.00,,2013-01-02 23:02:00,
2013-01-02 15:12:00,58.0,38.0,30.17,East,94,1.0,3.0,48,0.00,,,0.00,,2013-01-02 23:12:00,
2013-01-02 15:22:00,59.0,38.0,30.17,WSW,247,2.0,3.0,46,0.00,,,0.00,,2013-01-02 23:22:00,
2013-01-02 15:32:00,59.0,34.0,30.17,SW,217,1.0,5.0,39,0.00,,,0.00,,2013-01-02 23:32:00,
2013-01-02 15:42:00,59.0,34.0,30.17,SW,217,1.0,5.0,39,0.00,,,0.00,,2013-01-02 23:42:00,
2013-01-02 15:52:00,57.0,38.0,30.18,WNW,297,1.0,3.0,49,0.00,,,0.00,,2013-01-02 23:52:00,
2013-01-02 16:02:00,55.0,37.0,30.18,WNW,287,2.0,3.0,51,0.00,,,0.00,,2013-01-03 00:02:00,
2013-01-02 16:12:00,55.0,37.0,30.18,WNW,287,2.0,3.0,51,0.00,,,0.00,,2013-01-03 00:12:00,
2013-01-02 16:22:00,54.0,37.0,30.18,WNW,284,1.0,3.0,52,0.00,,,0.00,,2013-01-03 00:22:00,
2013-01-02 16:37:00,53.0,37.0,30.18,SW,227,1.0,2.0,55,0.00,,,0.00,,2013-01-03 00:37:00,
2013-01-02 16:42:00,53.0,37.0,30.18,SW,227,1.0,2.0,55,0.00,,,0.00,,2013-01-03 00:42:00,
2013-01-02 16:52:00,52.0,38.0,30.17,ENE,57,2.0,3.0,59,0.00,,,0.00,,2013-01-03 00:52:00,
2013-01-02 17:02:00,51.0,33.0,30.16,ENE,62,2.0,3.0,49,0.00,,,0.00,,2013-01-03 01:02:00,
2013-01-02 17:12:00,51.0,33.0,30.16,ENE,62,2.0,3.0,49,0.00,,,0.00,,2013-01-03 01:12:00,
2013-01-02 17:22:00,50.0,30.0,30.17,NE,43,1.0,2.0,46,0.00,,,0.00,,2013-01-03 01:22:00,
2013-01-02 17:32:00,49.0,36.0,30.17,SE,132,1.0,2.0,61,0.00,,,0.00,,2013-01-03 01:32:00,
2013-01-02 17:42:00,49.0,36.0,30.17,SE,132,1.0,2.0,61,0.00,,,0.00,,2013-01-03 01:42:00,
2013-01-02 17:52:00,48.0,30.0,30.17,NE,51,1.0,2.0,50,0.00,,,0.00,,2013-01-03 01:52:00,
2013-01-02 18:02:00,48.0,29.0,30.17,ENE,63,1.0,2.0,48,0.00,,,0.00,,2013-01-03 02:02:00,
2013-01-02 18:12:00,48.0,29.0,30.17,ENE,63,1.0,2.0,48,0.00,,,0.00,,2013-01-03 02:12:00,
2013-01-02 18:22:00,47.0,33.0,30.17,NE,45,1.0,2.0,57,0.00,,,0.00,,2013-01-03 02:22:00,
2013-01-02 18:32:00,46.0,35.0,30.17,WNW,302,1.0,2.0,66,0.00,,,0.00,,2013-01-03 02:32:00,
2013-01-02 18:42:00,46.0,35.0,30.17,WNW,302,1.0,2.0,66,0.00,,,0.00,,2013-01-03 02:42:00,
2013-01-02 18:52:00,46.0,35.0,30.17,WNW,302,1.0,2.0,66,0.00,,,0.00,,2013-01-03 02:52:00,
2013-01-02 19:02:00,45.0,32.0,30.17,WNW,302,1.0,1.0,60,0.00,,,0.00,,2013-01-03 03:02:00,
2013-01-02 19:12:00,45.0,32.0,30.17,WNW,302,1.0,2.0,59,0.00,,,0.00,,2013-01-03 03:12:00,
2013-01-02 19:22:00,45.0,32.0,30.17,WNW,302,1.0,2.0,59,0.00,,,0.00,,2013-01-03 03:22:00,
2013-01-02 19:46:00,44.0,34.0,30.17,WNW,302,0.0,1.0,67,0.00,,,0.00,,2013-01-03 03:46:00,
2013-01-02 19:52:00,44.0,33.0,30.17,NNW,340,1.0,2.0,65,0.00,,,0.00,,2013-01-03 03:52:00,
2013-01-02 20:02:00,44.0,33.0,30.18,North,350,1.0,1.0,65,0.00,,,0.00,,2013-01-03 04:02:00,
2013-01-02 20:12:00,44.0,33.0,30.18,North,350,1.0,1.0,65,0.00,,,0.00,,2013-01-03 04:12:00,
2013-01-02 20:22:00,44.0,34.0,30.18,North,350,1.0,1.0,67,0.00,,,0.00,,2013-01-03 04:22:00,
2013-01-02 20:32:00,44.0,34.0,30.18,North,350,0.0,2.0,68,0.00,,,0.00,,2013-01-03 04:32:00,
2013-01-02 20:42:00,44.0,34.0,30.18,North,350,0.0,2.0,68,0.00,,,0.00,,2013-01-03 04:42:00,
2013-01-02 20:52:00,43.0,33.0,30.18,North,355,1.0,2.0,68,0.00,,,0.00,,2013-01-03 04:52:00,
2013-01-02 21:03:00,43.0,34.0,30.18,ENE,72,1.0,1.0,71,0.00,,,0.00,,2013-01-03 05:03:00,
2013-01-02 21:12:00,43.0,34.0,30.18,ENE,72,1.0,1.0,71,0.00,,,0.00,,2013-01-03 05:12:00,
2013-01-02 21:22:00,43.0,35.0,30.19,ENE,72,1.0,1.0,72,0.00,,,0.00,,2013-01-03 05:22:00,
2013-01-02 21:33:00,43.0,34.0,30.19,ENE,72,2.0,2.0,71,0.00,,,0.00,,2013-01-03 05:33:00,
2013-01-02 21:42:00,43.0,34.0,30.19,ENE,72,2.0,2.0,71,0.00,,,0.00,,2013-01-03 05:42:00,
2013-01-02 21:52:00,43.0,35.0,30.19,ENE,72,1.0,2.0,73,0.00,,,0.00,,2013-01-03 05:52:00,
2013-01-02 22:02:00,42.0,35.0,30.19,ENE,72,1.0,2.0,76,0.00,,,0.00,,2013-01-03 06:02:00,
2013-01-02 22:12:00,42.0,35.0,30.19,ENE,72,1.0,2.0,76,0.00,,,0.00,,2013-01-03 06:12:00,
2013-01-02 22:22:00,43.0,34.0,30.19,NW,317,1.0,2.0,71,0.00,,,0.00,,2013-01-03 06:22:00,
2013-01-02 22:32:00,43.0,33.0,30.20,North,355,1.0,2.0,68,0.00,,,0.00,,2013-01-03 06:32:00,
2013-01-02 22:42:00,43.0,33.0,30.20,North,355,1.0,2.0,68,0.00,,,0.00,,2013-01-03 06:42:00,
2013-01-02 22:52:00,44.0,32.0,30.20,North,355,1.0,2.0,62,0.00,,,0.00,,2013-01-03 06:52:00,
2013-01-02 23:02:00,44.0,34.0,30.19,NE,53,1.0,2.0,69,0.00,,,0.00,,2013-01-03 07:02:00,
2013-01-02 23:12:00,44.0,34.0,30.19,NE,53,1.0,2.0,69,0.00,,,0.00,,2013-01-03 07:12:00,
2013-01-02 23:22:00,43.0,32.0,30.19,NE,52,1.0,2.0,65,0.00,,,0.00,,2013-01-03 07:22:00,
2013-01-02 23:32:00,43.0,32.0,30.19,ENE,65,2.0,4.0,66,0.00,,,0.00,,2013-01-03 07:32:00,
2013-01-02 23:42:00,43.0,32.0,30.19,ENE,65,2.0,4.0,66,0.00,,,0.00,,2013-01-03 07:42:00,
2013-01-02 23:52:00,45.0,30.0,30.19,East,79,2.0,4.0,56,0.00,,,0.00,,2013-01-03 07:52:00,